Regional Weather Roundup
Issued by NWS

Home | Current Version | Previous Version | Text Only | Print | Product List | Glossary Off
Versions: 1 2 3 4 5 6 7 8 9 10 11 12 13 14 15 16 17 18 19 20 21 22 23 24 25 26 27

000
ASUS45 KTFX 260510
RWRMT
MONTANA REGIONAL WEATHER ROUNDUP
NATIONAL WEATHER SERVICE GREAT FALLS MT
1000 PM MST SAT FEB 25 2017

NOTE: "FAIR" INDICATES FEW OR NO CLOUDS BELOW 12000 FEET WITH NO
SIGNIFICANT WEATHER AND/OR OBSTRUCTIONS TO VISIBILITY.

MTZ001>007-043-260600-
WEST OF THE DIVIDE

CITY           SKY/WX    TMP DP  RH WIND       PRES   REMARKS
KALISPELL      CLOUDY    27  17  66 SW7       29.82S WCI  19
MISSOULA       CLOUDY    28  17  63 E5        29.85F
BUTTE            N/A     19   5  54 NW8       29.75S WCI   9
MULLAN PASS    LGT SNOW  15  13  91 VRB7G22   29.69F FOG     WCI   5
ANACONDA         N/A     21   7  53 W6        29.77F WCI  14
DEER LODGE       N/A     25   7  46 CALM      29.80S
EUREKA           N/A     28  18  64 SE7       29.81F WCI  21
HAMILTON         N/A     28  12  50 SE8       29.84F WCI  20
LIBBY            N/A     28  21  74 CALM      29.81S
PLAINS           N/A     30  18  61 CALM      29.87F
RONAN            N/A     28  20  72 E3        29.89S
$$

MTZ008-052>055-260600-
SOUTHWEST MONTANA

CITY           SKY/WX    TMP DP  RH WIND       PRES   REMARKS
BOZEMAN        CLOUDY    18   6  59 E5        29.78S
DILLON         CLEAR     20   8  60 SW15      29.78R WCI   6
W YELLOWSTONE  CLOUDY     9   3  78 SW12G18   29.78S WCI  -6
ENNIS          CLOUDY    19   9  63 S12       29.83R WCI   7
THREE FORKS      N/A     23  23 100 CALM      29.80R
TWIN BRIDGES     N/A     22   7  52 SE6       29.81S WCI  15
$$

MTZ009-010-012-014-046-048-049-054-260600-
EAST SLOPES AND CENTRAL MONTANA

CITY           SKY/WX    TMP DP  RH WIND       PRES   REMARKS
CUT BANK       CLOUDY    25  14  63 W24G36    29.59R WCI   9
GREAT FALLS    CLOUDY    27   9  46 SW21      29.63S WCI  13
MALMSTROM AFB  CLOUDY    27  12  52 SW18      29.65S WCI  14
HELENA         CLOUDY    28   9  44 W12G21    29.76S WCI  18
AUGUSTA        CLOUDY    24   8  49 W36G46    29.60R WCI   6
BOWMANS CRNR   MOCLDY    24   8  49 SW15      29.63R WCI  11
CHOTEAU          N/A     28   7  40 W16G28    29.61S WCI  17
CONRAD           N/A     29  16  58 SW9       29.66R WCI  21
POWER          MOCLDY    27   8  46 SW22G31   29.61R WCI  12
RAYNESFORD     MOCLDY    26   9  48 W21G32    29.63S WCI  11
ULM            CLOUDY    28  10  48 MISG      29.66S
$$

MTZ011-013-016-021-045-047-050-051-260600-
NORTH CENTRAL MONTANA

CITY           SKY/WX    TMP DP  RH WIND       PRES   REMARKS
HAVRE          CLOUDY    29  18  63 W13       29.62R WCI  19
LEWISTOWN      CLOUDY    20   9  62 SW17      29.62S WCI   5
N BAR RANCH    CLOUDY    19   7  58 W6        29.63R WCI  11
CHINOOK          N/A     28  19  69 W8        29.62S WCI  20
DENTON           N/A     22  11  65 SW8       29.60S WCI  12
FORT BENTON      N/A     28  10  47 MISG      29.66S
GEYSER         MOCLDY    25   8  49 W16       29.61S WCI  12
GRASS RANGE      N/A     21  10  63 W13       29.59S WCI   9
JUDITH GAP       N/A     14   3  63 E7        29.61S WCI   3
ROY              N/A     22  13  67 MISG      29.60F
STANFORD       MOCLDY    24   8  51 W15       29.60F WCI  11
WINIFRED         N/A     24  13  61 W17       29.60S WCI  11
$$

MTZ017>020-022>027-061-062-260600-
NORTHEAST MONTANA

CITY           SKY/WX    TMP DP  RH WIND       PRES   REMARKS
GLASGOW        CLOUDY    17  13  84 E13       29.65S WCI   4
JORDAN           N/A     23  18  81 W6        29.64S WCI  16
SIDNEY         MOCLDY    13  10  88 CALM      29.71S
WOLF POINT     CLOUDY    12   8  84 NE5       29.70S
PLENTYWOOD       N/A      3   1  92 CALM      29.68R
POPLAR           N/A     12   9  85 CALM      29.70F
SCOBEY           N/A     -1 -10  65 CALM      29.66S
$$

MTZ028>42-056>058-260600-
SOUTHCENTRAL AND SOUTHEAST MONTANA

CITY           SKY/WX    TMP DP  RH WIND       PRES   REMARKS
BAKER          MOCLDY    20  16  84 N6        29.66S WCI  12
BILLINGS       CLEAR     27  13  55 W23G31    29.68S WCI  12
LIVINGSTON     CLOUDY    24   8  50 SW22G33   29.71S WCI   9
MILES CITY     CLOUDY    27  18  69 SW9       29.67F WCI  18
BIG TIMBER     CLOUDY    23  12  63 W37G46    29.67S HAZE    WCI   4
EKALAKA          N/A     21  14  74 SW8       29.65S WCI  11
FORSYTH          N/A     27  16  63 CALM      29.68S
HARLOWTON      MOCLDY    23  11  58 W20       29.64S WCI   9
LAUREL           N/A     20   9  62 SW6       29.69S WCI  12
$$

REGIONAL REPORTS...DAKOTAS

CITY           SKY/WX    TMP DP  RH WIND       PRES   REMARKS
WILLISTON      CLOUDY     3   1  91 CALM      29.71S
MINOT          PTCLDY    10   6  84 NW8       29.70R WCI  -2
DICKINSON      CLOUDY    21  18  88 NW7       29.63R WCI  12
BEACH            N/A    N/A N/A N/A MISG        N/A
CROSBY           N/A      7   7 100 SW5       29.72S
TIOGA          FLURRIES  -2  -2 100 W5        29.70R
WATFORD CITY     N/A      7   5  92 CALM      29.70S
BISMARCK       CLOUDY    28  25  88 W12       29.67R WCI  18
GRAND FORKS    CLOUDY    17   8  67 N9        29.73F WCI   6
FARGO          CLEAR     22  20  92 W3        29.71S
BUFFALO SD       N/A     19  15  84 W8        29.60S WCI   9
RAPID CITY     CLEAR     20  17  88 NW9       29.72S WCI   9
$$

REGIONAL REPORTS...WYOMING/IDAHO/WASHINGTON

CITY           SKY/WX    TMP DP  RH WIND       PRES   REMARKS
GILLETTE       PTCLDY    18  15  88 W9        29.69S WCI   7
SHERIDAN       CLEAR     17  11  77 SE10      29.70S WCI   5
BUFFALO WY     CLEAR     15   7  70 W10       29.68S WCI   2
CODY           CLEAR     22   1  40 W21G33    29.69R WCI   6
YELLOWSTONE LA   N/A     -4  -7  87 CALM      29.76R
IDAHO FALLS    CLEAR     12   9  87 SW9       29.92S WCI   0
SALMON         CLOUDY    27  10  50 SW9       29.87S WCI  17
BOISE          PTCLDY    29  17  61 SE8       29.98F WCI  21
SPOKANE        CLOUDY    31  23  72 S12       29.83F WCI  22
$$

REGIONAL REPORTS...ALBERTA

CITY           SKY/WX    TMP DP  RH WIND       PRES   REMARKS
EDMONTON       CLOUDY    19  16  86 N15       29.71R WCI   5
CALGARY        CLOUDY    21  18  86 N13       29.64R DRFTSNOWWCI   9
LETHBRIDGE     CLOUDY    30  14  51 W26G36    29.60R WCI  16
MEDICINE HAT   CLOUDY    21  18  86 E3        29.61R
WATERTON GATE    N/A     25   9  50 SW18G28     N/A  WCI  11
CARDSTON         N/A     27  10  50 W18G28      N/A  WCI  13
MILK RIVER       N/A     27  19  74 NW25G33     N/A  WCI  11
$$

REGIONAL REPORTS...SASKATCHEWAN

CITY           SKY/WX    TMP DP  RH WIND       PRES   REMARKS
SWIFT CURRENT  FLURRIES  16  12  86 S8        29.59S WCI   5
REGINA         PTCLDY     5   1  85 S8        29.68S WCI  -8
SASKATOON      FLURRIES  16  14  93 S5        29.65S
CYPRESS HILLS    N/A     19   7  58 W3          N/A
VAL MARIE        N/A     12  10  92 SW2         N/A
ASSINIBOIA       N/A     18  16  93 NW9         N/A  WCI   6
$$




USA.gov is the U.S. government's official web portal to all federal, state and local government web resources and services.